This demonstration page uses our WeatherBlox Daily Observations layout. Learn more.

39.01783, -85.05884

Hourly Observations for November 24, 2019

Temp ( °F °C ) Dew Point ( °F °C ) Humidity (%) Winds ( mph kmh ) Pressure ( in mb ) Visibility ( mi km ) Precip ( " mm )
12:32 am 00:32 Cloudy with Light Snow 34 1.1 31 -0.6 89 89 W 12 19 29.83 1010 5 8.0467 0.01 0.254
12:52 am 00:52 Cloudy with Mist and Fog 34 1.1 31 -0.6 89 89 W 9 15 29.79 1009 5 8.0467 0.01 0.254
1:39 am 01:39 Cloudy with Mist and Fog 35 1.7 32 0 89 89 W 15 24 29.82 1010 6 9.65604 0 0
1:52 am 01:52 Cloudy with Mist and Fog 35 1.7 32 0 89 89 W 15 24 29.79 1009 6 9.65604 0 0
2:52 am 02:52 Partly Cloudy with Mist and Fog 34 1.1 31 -0.6 89 89 W 9 15 29.8 1009 6 9.65604 0 0
3:44 am 03:44 Partly Cloudy with Mist and Fog 34 1.1 31 -0.6 89 89 W 10 17 29.84 1011 6 9.65604 0 0
3:52 am 03:52 Partly Cloudy with Mist and Fog 34 1.1 31 -0.6 89 89 W 9 15 29.81 1009 6 9.65604 0 0
4:03 am 04:03 Mostly Cloudy with Mist and Fog 34 1.1 31 -0.6 89 89 W 10 17 29.83 1010 6 9.65604 0 0
4:52 am 04:52 Mostly Cloudy with Mist and Fog 34 1.1 31 -0.6 89 89 WSW 10 17 29.81 1009 6 9.65604 0 0
5:52 am 05:52 Cloudy with Mist and Fog 34 1.1 31 -0.6 89 89 SW 7 11 29.8 1009 6 9.65604 0 0
6:52 am 06:52 Cloudy with Mist and Fog 34 1.1 31 -0.6 89 89 SW 10 17 29.82 1010 5 8.0467 0 0
7:52 am 07:52 Cloudy with Mist and Fog 34 1.1 31 -0.6 89 89 WSW 13 20 29.83 1010 4 6.43736 0 0
9:52 am 09:52 Mostly Cloudy with Haze 37 2.8 32 0 82 82 SW 12 19 29.85 1011 5 8.0467 0 0
10:52 am 10:52 Mostly Cloudy 39 3.9 33 0.6 79 79 SW 12 19 29.85 1011 7 11.26538 0 0
11:52 am 11:52 Partly Cloudy 43 6.1 34 1.1 71 71 WSW 14 22 29.82 1010 9 14.48406 0 0
12:52 pm 12:52 Partly Cloudy 46 7.8 34 1.1 63 63 SW 13 20 29.79 1009 10 16.0934 0 0
1:52 pm 13:52 Partly Cloudy 47 8.3 34 1.1 61 61 WSW 13 20 29.78 1009 10 16.0934 0 0
2:52 pm 14:52 Mostly Sunny 48 8.9 34 1.1 58 58 WSW 12 19 29.78 1008 10 16.0934 0 0
3:52 pm 15:52 Mostly Sunny 48 8.9 34 1.1 58 58 SSW 9 15 29.76 1008 10 16.0934 0 0
4:52 pm 16:52 Mostly Sunny 47 8.3 34 1.1 61 61 SSW 10 17 29.76 1008 10 16.0934 0 0
5:52 pm 17:52 Mostly Clear 43 6.1 33 0.6 68 68 SW 6 9 29.78 1008 10 16.0934 0 0
6:52 pm 18:52 Mostly Clear 41 5 33 0.6 73 73 SSW 7 11 29.79 1009 10 16.0934 0 0
7:52 pm 19:52 Clear 40 4.4 33 0.6 77 77 SSW 8 13 29.79 1009 10 16.0934 0 0
8:52 pm 20:52 Clear 41 5 33 0.6 73 73 SW 8 13 29.8 1009 10 16.0934 0 0
9:52 pm 21:52 Clear 39 3.9 32 0 76 76 SSW 8 13 29.79 1009 10 16.0934 0 0
10:52 pm 22:52 Clear 37 2.8 32 0 82 82 S 6 9 29.8 1009 10 16.0934 0 0
11:52 pm 23:52 Clear 36 2.2 32 0 86 86 S 8 13 29.79 1009 10 16.0934 0 0

Powered by AerisWeather